This is the latest recevied weather packets stored in our database for station/object IZ4UFQ-10. If no packets are shown the sender has not sent any weather packets the latest 1 day(s).
| Time | Temp. | Humidity | Pressure | Rain* | Wind** | Luminosity | Snow |
|---|---|---|---|---|---|---|---|
| 1777987589 | 20° C | 79% | 1011.3 hPa | 0.25 mm | 0 m/s | 867 W/m² | - |
| 1777987288 | 20° C | 80% | 1011.4 hPa | 0.25 mm | 0 m/s | 916 W/m² | - |
| 1777986988 | 20° C | 79% | 1011.5 hPa | 0.25 mm | 0 m/s | 302 W/m² | - |
| 1777986688 | 20° C | 80% | 1011.5 hPa | 0.25 mm | 0 m/s | 367 W/m² | - |
| 1777986388 | 20° C | 80% | 1011.5 hPa | 0.25 mm | 0 m/s | 343 W/m² | - |
| 1777986087 | 19.44° C | 80% | 1011.5 hPa | 0.25 mm | 0 m/s | 220 W/m² | - |
| 1777985787 | 19.44° C | 81% | 1011.6 hPa | 0.25 mm | 0 m/s | 422 W/m² | - |
| 1777985487 | 19.44° C | 83% | 1011.6 hPa | 0.25 mm | 0 m/s | 290 W/m² | - |
| 1777985186 | 19.44° C | 85% | 1011.8 hPa | 0.25 mm | 0 m/s | 928 W/m² | - |
| 1777984886 | 18.89° C | 85% | 1011.7 hPa | 0.25 mm | 0 m/s | 914 W/m² | - |
| 1777984587 | 18.33° C | 87% | 1011.8 hPa | 0 mm | 0 m/s | 471 W/m² | - |
| 1777984286 | 18.33° C | 88% | 1011.8 hPa | 0 mm | 0 m/s | 1011 W/m² | - |
| 1777983985 | 18.33° C | 88% | 1012 hPa | 0 mm | 0 m/s | 1069 W/m² | - |
| 1777983685 | 17.78° C | 89% | 1012.1 hPa | 0 mm | 0 m/s | 329 W/m² | - |
| 1777983385 | 17.78° C | 90% | 1012.1 hPa | 0 mm | 0 m/s | 1025 W/m² | - |
| 1777983084 | 17.22° C | 90% | 1012.2 hPa | 0 mm | 0 m/s | 462 W/m² | - |
| 1777982784 | 17.22° C | 91% | 1012.4 hPa | 0 mm | 0 m/s | 315 W/m² | - |
| 1777982484 | 17.22° C | 90% | 1012.3 hPa | 0 mm | 0 m/s | 195 W/m² | - |
| 1777982184 | 17.22° C | 91% | 1012.3 hPa | 0 mm | 0 m/s | 352 W/m² | - |
| 1777981883 | 16.67° C | 92% | 1012.3 hPa | 0 mm | 0 m/s | 533 W/m² | - |
| 1777981583 | 16.67° C | 92% | 1012.4 hPa | 0 mm | 0 m/s | 278 W/m² | - |
| 1777981283 | 16.67° C | 92% | 1012.4 hPa | 0 mm | 0 m/s | 427 W/m² | - |
| 1777980982 | 16.67° C | 93% | 1012.4 hPa | 0 mm | 0 m/s | 694 W/m² | - |
| 1777980682 | 16.67° C | 93% | 1012.4 hPa | 0 mm | 0 m/s | 397 W/m² | - |
| 1777980382 | 16.67° C | 93% | 1012.3 hPa | 0 mm | 0 m/s | 1155 W/m² | - |
* Rain latest hour (hover to see other rain measurements)
** Current wind speed in m/s (hover to see current wind gust speed)